| time (UTC) | temp C | wind direction | speed KPH | gust KPH | rain 1hr cm | rain 24hr cm | rain mn cm | humidity % | barometer mb |
| 20260504184525 | 14 | 90 | 0.0 | 1.6 | 0.00 | 0.00 | 0.00 | 70 | 1015.2 |
| 20260504183023 | 14 | 90 | 0.0 | 0.0 | 0.00 | 0.00 | 0.00 | 68 | 1015.3 |
| 20260504181521 | 14 | 90 | 0.0 | 1.6 | 0.00 | 0.00 | 0.00 | 68 | 1015.1 |
| 20260504180020 | 14 | 90 | 0.0 | 1.6 | 0.00 | 0.00 | 0.00 | 68 | 1015.1 |
| 20260504174517 | 14 | 90 | 0.0 | 1.6 | 0.00 | 0.00 | 0.00 | 68 | 1014.8 |
| 20260504173020 | 14 | 90 | 0.0 | 4.8 | 0.00 | 0.00 | 0.00 | 69 | 1014.7 |
| 20260504171558 | 14 | 90 | 0.0 | 1.6 | 0.00 | 0.00 | 0.00 | 69 | 1014.6 |
| 20260504081516 | 13 | 123 | 0.0 | 3.2 | 0.00 | 0.00 | 0.00 | 70 | 1012.9 |
| 20260504044609 | 15 | 110 | 0.0 | 9.7 | 0.00 | 0.00 | 0.00 | 59 | 1011.3 |
| 20260504043046 | 15 | 94 | 0.0 | 9.7 | 0.00 | 0.00 | 0.00 | 58 | 1011.1 |
| 20260504041537 | 16 | 93 | 0.0 | 3.2 | 0.00 | 0.00 | 0.00 | 59 | 1010.8 |
| 20260504040023 | 16 | 83 | 0.0 | 11.3 | 0.00 | 0.00 | 0.00 | 57 | 1010.7 |
| 20260504034517 | 17 | 96 | 1.6 | 11.3 | 0.00 | 0.00 | 0.00 | 56 | 1010.3 |
| 20260504033059 | 17 | 122 | 0.0 | 8.0 | 0.00 | 0.00 | 0.00 | 56 | 1010.2 |
| 20260504031559 | 18 | 142 | 0.0 | 12.9 | 0.00 | 0.00 | 0.00 | 54 | 1009.9 |
| 20260504030041 | 19 | 86 | 3.2 | 14.5 | 0.00 | 0.00 | 0.00 | 52 | 1009.6 |
| 20260504024540 | 20 | 125 | 1.6 | 9.7 | 0.00 | 0.00 | 0.00 | 50 | 1009.2 |
| 20260504023026 | 22 | 82 | 0.0 | 8.0 | 0.00 | 0.00 | 0.00 | 48 | 1008.9 |
| 20260504021523 | 22 | 141 | 0.0 | 4.8 | 0.00 | 0.00 | 0.00 | 46 | 1008.5 |
| 20260504020010 | 22 | 75 | 0.0 | 6.4 | 0.00 | 0.00 | 0.00 | 44 | 1008.4 |
| 20260504014510 | 23 | 70 | 0.0 | 8.0 | 0.00 | 0.00 | 0.00 | 44 | 1008.3 |
| 20260504013008 | 23 | 77 | 0.0 | 6.4 | 0.00 | 0.00 | 0.00 | 41 | 1008.4 |
| 20260504011517 | 24 | 74 | 0.0 | 4.8 | 0.00 | 0.00 | 0.00 | 41 | 1008.4 |
| 20260504010006 | 25 | 66 | 0.0 | 6.4 | 0.00 | 0.00 | 0.00 | 41 | 1008.4 |
| 20260504004506 | 25 | 60 | 0.0 | 4.8 | 0.00 | 0.00 | 0.00 | 41 | 1008.5 |
| 20260504003006 | 26 | 57 | 0.0 | 6.4 | 0.00 | 0.00 | 0.00 | 40 | 1008.4 |
| 20260504001505 | 26 | 49 | 0.0 | 1.6 | 0.00 | 0.00 | 0.00 | 40 | 1008.4 |
| 20260504000046 | 26 | 49 | 0.0 | 8.0 | 0.00 | 0.00 | 0.00 | 40 | 1008.5 |
| 20260503234545 | 26 | 49 | 0.0 | 3.2 | 0.00 | 0.00 | 0.00 | 38 | 1008.6 |
| 20260503233028 | 26 | 61 | 0.0 | 4.8 | 0.00 | 0.00 | 0.00 | 39 | 1008.7 |
| 20260503231527 | 26 | 139 | 0.0 | 6.4 | 0.00 | 0.00 | 0.00 | 38 | 1008.8 |
| 20260503230008 | 26 | 106 | 0.0 | 3.2 | 0.00 | 0.00 | 0.00 | 40 | 1008.8 |
| 20260503224509 | 26 | 182 | 0.0 | 1.6 | 0.00 | 0.00 | 0.00 | 39 | 1009.0 |
| 20260503223047 | 27 | 170 | 0.0 | 3.2 | 0.00 | 0.00 | 0.00 | 38 | 1009.2 |
| 20260503221546 | 27 | 108 | 0.0 | 4.8 | 0.00 | 0.00 | 0.00 | 37 | 1009.4 |
| 20260503220027 | 27 | 152 | 0.0 | 9.7 | 0.00 | 0.00 | 0.00 | 40 | 1009.6 |
| 20260503214527 | 27 | 82 | 1.6 | 8.0 | 0.00 | 0.00 | 0.00 | 39 | 1009.6 |
| 20260503213006 | 27 | 43 | 0.0 | 3.2 | 0.00 | 0.00 | 0.00 | 38 | 1009.7 |
| 20260503211505 | 26 | 81 | 0.0 | 9.7 | 0.00 | 0.00 | 0.00 | 39 | 1009.8 |
| 20260503210045 | 26 | 134 | 0.0 | 8.0 | 0.00 | 0.00 | 0.00 | 40 | 1009.9 |
| 20260503204544 | 26 | 32 | 0.0 | 3.2 | 0.00 | 0.00 | 0.00 | 38 | 1009.9 |
| 20260503203025 | 27 | 70 | 0.0 | 6.4 | 0.00 | 0.00 | 0.00 | 40 | 1010.0 |
| 20260503201524 | 27 | 62 | 0.0 | 6.4 | 0.00 | 0.00 | 0.00 | 39 | 1010.2 |
| 20260503200006 | 26 | 82 | 0.0 | 4.8 | 0.00 | 0.00 | 0.00 | 40 | 1010.4 |
| 20260503194502 | 26 | 80 | 0.0 | 4.8 | 0.00 | 0.00 | 0.00 | 39 | 1010.7 |
| 20260503193046 | 26 | 82 | 0.0 | 6.4 | 0.00 | 0.00 | 0.00 | 41 | 1011.0 |
| 20260503191542 | 26 | 79 | 0.0 | 4.8 | 0.00 | 0.00 | 0.00 | 40 | 1011.0 |
| 20260503190022 | 25 | 80 | 0.0 | 4.8 | 0.00 | 0.00 | 0.00 | 42 | 1011.0 |